TimeMST,TemperatureF,Dew PointF,Humidity,Sea Level PressureIn,VisibilityMPH,Wind Direction,Wind SpeedMPH,Gust SpeedMPH,PrecipitationIn,Events,Conditions,WindDirDegrees,DateUTC
12:58 AM,91.8,62.6,38,29.81,10.0,SE,3.5,-,N/A,,Clear,130,2013-08-03 07:58:00
1:58 AM,88.7,64.2,44,29.81,10.0,North,1.2,-,N/A,,Clear,10,2013-08-03 08:58:00
2:58 AM,85.8,63.1,46,29.81,10.0,NNW,3.5,-,N/A,,Clear,330,2013-08-03 09:58:00
3:58 AM,84.6,63.1,48,29.81,10.0,West,3.5,-,N/A,,Clear,280,2013-08-03 10:58:00
4:58 AM,82.9,63.7,52,29.84,10.0,NNW,4.6,-,N/A,,Clear,330,2013-08-03 11:58:00
5:58 AM,82.4,64.2,54,29.85,10.0,NNE,2.3,-,N/A,,Clear,30,2013-08-03 12:58:00
6:58 AM,83.8,62.1,48,29.86,10.0,NE,3.5,-,N/A,,Clear,50,2013-08-03 13:58:00
7:58 AM,88.2,61.5,41,29.89,10.0,East,4.6,-,N/A,,Clear,90,2013-08-03 14:58:00
8:58 AM,91.0,61.0,36,29.90,10.0,NE,2.3,-,N/A,,Clear,50,2013-08-03 15:58:00
9:58 AM,94.3,59.5,31,29.90,10.0,Variable,2.3,-,N/A,,Clear,0,2013-08-03 16:58:00
10:58 AM,97.9,51.8,21,29.88,10.0,SSE,4.6,-,N/A,,Clear,150,2013-08-03 17:58:00
11:58 AM,100.6,45.3,15,29.86,10.0,Variable,3.5,-,N/A,,Clear,0,2013-08-03 18:58:00
12:58 PM,101.7,51.4,19,29.84,10.0,ENE,3.5,-,N/A,,Clear,60,2013-08-03 19:58:00
1:58 PM,103.6,51.3,17,29.82,10.0,Calm,Calm,-,N/A,,Partly Cloudy,0,2013-08-03 20:58:00
2:58 PM,104.7,49.1,15,29.80,10.0,West,9.2,16.1,N/A,,Clear,260,2013-08-03 21:58:00
3:58 PM,104.7,49.1,15,29.78,10.0,West,5.8,-,N/A,,Clear,280,2013-08-03 22:58:00
4:58 PM,105.3,49.5,15,29.76,10.0,NNW,4.6,-,N/A,,Clear,340,2013-08-03 23:58:00
5:58 PM,105.3,51.3,16,29.75,10.0,Variable,3.5,-,N/A,,Clear,0,2013-08-04 00:58:00
6:58 PM,103.6,53.1,19,29.75,10.0,Calm,Calm,-,N/A,,Clear,0,2013-08-04 01:58:00
7:58 PM,102.6,52.2,19,29.75,10.0,ENE,2.3,-,N/A,,Clear,60,2013-08-04 02:58:00
8:58 PM,102.4,54.0,20,29.76,10.0,ENE,1.2,-,N/A,,Clear,70,2013-08-04 03:58:00
9:58 PM,100.8,53.8,21,29.78,10.0,Variable,3.5,-,N/A,,Mostly Cloudy,0,2013-08-04 04:58:00
10:58 PM,96.6,57.0,27,29.78,10.0,SSW,8.1,-,N/A,,Clear,200,2013-08-04 05:58:00
11:58 PM,96.1,45.9,18,29.79,10.0,SW,15.0,-,N/A,,Clear,220,2013-08-04 06:58:00